[[[{"header":{"parameterUnit":"kt","parameterCategory":2,"dx":1,"dy":1,"la1":30.253999710083008,"la2":30.299108505249023,"lo1":-89.0895004272461,"lo2":-89.04439544677734,"nx":28,"ny":28,"refTime":"2022-10-25T21:00:00:Z","depth":0,"parameterNumber":1,"parameterNumberName":"U-component_of_WINDS"},"data":[1.6469,1.6444,1.6439,1.6409,1.6399,1.6377,1.6367,1.6354,1.6341,1.6314,1.6298,1.6289,1.6273,1.6251,1.6232,1.6228,1.622,1.6217,1.6213,1.6232,1.6234,1.6236,1.6242,1.6216,1.6216,1.6193,1.6193,1.6192,1.6488,1.6478,1.6461,1.6439,1.6424,1.6424,1.6406,1.6393,1.6373,1.6357,1.634,1.6315,1.6294,1.6278,1.6256,1.6245,1.6242,1.6239,1.6239,1.6236,1.6258,1.6263,1.6242,1.6242,1.6242,1.6242,1.6242,1.6242,1.6523,1.6508,1.6491,1.6471,1.6458,1.6444,1.6429,1.6417,1.6399,1.6375,1.637,1.6347,1.6329,1.6298,1.6285,1.6266,1.6268,1.6261,1.626,1.6258,1.6257,1.6293,1.6262,1.6262,1.6262,1.6262,1.6262,0,1.6545,1.6541,1.6522,1.6502,1.6487,1.647,1.6454,1.6444,1.643,1.6415,1.6393,1.6378,1.635,1.6327,1.6304,1.6291,1.6286,1.6285,1.628,1.6282,1.6287,1.6284,1.6318,1.6285,1.6285,1.6285,1.6285,1.6285,1.6578,1.6561,1.6539,1.6527,1.6516,1.6496,1.6482,1.6472,1.6457,1.6434,1.6421,1.6399,1.6379,1.6343,1.6326,1.6304,1.6301,1.6289,1.6297,1.6301,1.63,1.63,1.6299,1.6287,1.6287,1.6286,1.6286,0,1.6597,1.6585,1.6557,1.6535,1.653,1.6512,1.6494,1.6478,1.6467,1.6444,1.6437,1.642,1.6396,1.6382,1.6352,1.6345,1.6316,1.6314,1.6323,1.6322,1.6309,1.631,1.6272,1.6266,1.6293,1.6293,1.6293,0,1.6619,1.6597,1.6581,1.6564,1.654,1.6529,1.6504,1.6492,1.6475,1.6456,1.6449,1.6431,1.6415,1.6395,1.6385,1.6359,1.6353,1.6345,1.6342,1.6345,1.6346,1.6335,1.6335,1.6337,1.6337,1.6337,1.6337,0,1.6649,1.6613,1.6587,1.6577,1.655,1.6538,1.6526,1.6506,1.6492,1.6471,1.6462,1.6438,1.6425,1.6407,1.6393,1.6399,1.6361,1.6366,1.6353,1.6353,1.6343,1.6344,1.6315,1.6338,1.6338,1.6338,1.6338,0,1.6664,1.6644,1.6608,1.6586,1.6576,1.6558,1.6535,1.6516,1.6495,1.6487,1.647,1.6462,1.6438,1.6445,1.6411,1.6423,1.641,1.6401,1.64,1.6394,1.6401,1.6386,1.6362,1.6358,1.6393,1.6394,1.6394,0,1.6701,1.6661,1.665,1.6615,1.6594,1.6587,1.6567,1.6548,1.6536,1.6515,1.6501,1.6477,1.6479,1.6469,1.6455,1.6438,1.6423,1.644,1.6409,1.6409,1.6415,1.6393,1.6392,1.6369,1.64,1.6399,1.6399,0,1.6728,1.6695,1.6689,1.6676,1.6649,1.663,1.6607,1.6581,1.6569,1.6547,1.6527,1.6493,1.6492,1.6475,1.6465,1.6451,1.6433,1.6452,1.6451,1.6448,1.6401,1.6401,1.6397,1.6429,1.6429,1.6428,1.6403,0,1.6752,1.6729,1.6714,1.6684,1.6668,1.6644,1.6627,1.6612,1.6605,1.6591,1.6561,1.6538,1.6509,1.6501,1.6492,1.6464,1.6466,1.6465,1.6468,1.6454,1.6445,1.6441,1.6483,1.6483,1.6482,1.6482,0,0,1.679,1.6757,1.6743,1.672,1.6705,1.6696,1.6673,1.6656,1.6623,1.6613,1.6615,1.6563,1.6543,1.6507,1.6502,1.649,1.6483,1.6487,1.6461,1.6458,1.6456,1.6447,1.6444,1.6482,1.6482,1.6482,1.6482,0,1.6795,1.6778,1.6755,1.6738,1.6712,1.6699,1.6694,1.6665,1.6655,1.6624,1.6616,1.6595,1.6552,1.6533,1.6518,1.6492,1.6485,1.6485,1.6478,1.6461,1.6459,1.6457,1.6448,1.6445,1.6482,1.6482,1.6482,0,1.6817,1.6798,1.6784,1.6749,1.6731,1.6709,1.6709,1.6684,1.6667,1.6655,1.6624,1.6608,1.6581,1.6549,1.6534,1.6535,1.6489,1.6499,1.6499,1.6496,1.6479,1.6476,1.6474,1.6506,1.6506,1.6506,0,0,1.6823,1.6801,1.6775,1.6748,1.6738,1.6717,1.6702,1.6693,1.6669,1.6659,1.6638,1.6615,1.659,1.6573,1.6548,1.6516,1.6508,1.6503,1.6502,1.6501,1.6498,1.648,1.6478,1.6507,1.6507,1.6507,0,0,1.6825,1.6794,1.679,1.6758,1.6737,1.6707,1.6691,1.6685,1.6661,1.6661,1.6642,1.6634,1.6604,1.6588,1.6599,1.6549,1.6552,1.6549,1.656,1.6558,1.6557,1.6561,1.6593,0,0,0,0,0,1.682,1.6798,1.6795,1.6787,1.674,1.6709,1.6703,1.6687,1.6691,1.6679,1.6661,1.6654,1.659,1.66,1.6591,1.6578,1.6515,1.6513,1.6512,1.6518,1.6516,1.6515,0,0,0,0,0,0,1.6817,1.6807,1.6796,1.6766,1.6755,1.671,1.6712,1.6707,1.6691,1.6691,1.6658,1.6653,1.6637,1.6603,1.6595,1.6583,1.6596,1.6514,1.6513,1.6512,1.6517,1.6516,1.6515,0,0,0,0,0,1.6814,1.6806,1.6736,1.6766,1.6756,1.673,1.6713,1.6709,1.6696,1.6667,1.6662,1.6685,1.6638,1.663,1.6598,1.6587,1.6601,1.6598,1.6513,1.6512,1.6511,1.6517,0,0,0,0,0,0,1.6812,1.6802,1.6733,1.673,1.6772,1.6732,1.6726,1.671,1.6672,1.6667,1.6694,1.6693,1.6637,1.6632,1.6626,1.659,1.6605,1.6602,1.66,1.6513,1.6512,1.6511,0,0,0,0,0,0,1.6806,1.6799,1.6732,1.6741,1.6739,1.6734,1.6728,1.6698,1.6672,1.6701,1.67,1.6694,1.6645,1.6633,1.6628,1.6582,1.6608,1.6605,1.6604,1.6602,1.6512,1.6511,0,0,0,0,0,0,1.6803,1.6797,1.6742,1.674,1.6738,1.6698,1.6707,1.666,1.6682,1.6703,1.6684,1.6684,1.6646,1.6642,1.663,1.6585,1.6582,1.6608,1.6606,1.6605,1.6604,0,0,0,0,0,0,0,1.68,1.6845,1.6754,1.6739,1.6737,1.6698,1.6697,1.6696,1.6682,1.6683,1.6683,1.6684,1.6623,1.662,1.6617,1.6588,0,0,1.6608,1.6607,0,0,0,0,0,0,0,0,1.6847,1.6845,1.6754,1.6753,1.6753,1.6698,1.6697,1.6697,1.6682,1.6683,1.6683,1.6684,1.6622,1.662,1.6618,0,0,0,0,0,0,0,0,0,0,0,0,0,0,0,1.6754,1.6753,0,1.6698,1.6697,1.6697,1.6682,1.6683,1.6683,1.6684,1.6622,1.662,1.6618,0,0,0,0,0,0,0,0,0,0,0,0,0,0,0,0,0,0,0,0,0,0,0,0,0,0,0,0,0,0,0,0,0,0,0,0,0,0,0,0,0,0,0,0,0,0,0,0,0,0,0,0,0,0,0,0,0,0,0,0,0,0,0,0,0,0,0,0,0]}],[{"header":{"parameterUnit":"kt","parameterCategory":2,"dx":1,"dy":1,"la1":30.253999710083008,"la2":30.299108505249023,"lo1":-89.0895004272461,"lo2":-89.04439544677734,"nx":28,"ny":28,"refTime":"2022-10-25T21:00:00:Z","depth":0,"parameterNumber":2,"parameterNumberName":"V-component_of_WINDS"},"data":[-14.212,-14.2424,-14.2447,-14.2801,-14.288,-14.3125,-14.3218,-14.3339,-14.344,-14.3728,-14.3896,-14.3943,-14.4046,-14.4247,-14.4425,-14.444,-14.4515,-14.4608,-14.4609,-14.4181,-14.4122,-14.4067,-14.3999,-14.4624,-14.4624,-14.5051,-14.5055,-14.5058,-14.1805,-14.1888,-14.2083,-14.2286,-14.2451,-14.2376,-14.2527,-14.2669,-14.2887,-14.3013,-14.3179,-14.3432,-14.3631,-14.3703,-14.3896,-14.4032,-14.4005,-14.4083,-14.4073,-14.409,-14.3633,-14.3561,-14.4102,-14.4102,-14.4102,-14.4102,-14.4102,-14.4102,-14.1236,-14.1418,-14.1554,-14.1765,-14.1872,-14.2005,-14.2179,-14.2236,-14.2422,-14.2632,-14.2616,-14.286,-14.2984,-14.3224,-14.3307,-14.3494,-14.3409,-14.3499,-14.3521,-14.3544,-14.3569,-14.2952,-14.3526,-14.3525,-14.3523,-14.3522,-14.3521,0,-14.0827,-14.0834,-14.1021,-14.1216,-14.137,-14.1521,-14.1661,-14.1769,-14.1781,-14.1934,-14.2155,-14.2284,-14.2536,-14.2742,-14.2925,-14.2992,-14.2923,-14.2917,-14.2979,-14.2993,-14.2982,-14.2992,-14.2246,-14.29,-14.2895,-14.2891,-14.2888,-14.2886,-14.0256,-14.0464,-14.0615,-14.0744,-14.0826,-14.1033,-14.1159,-14.1155,-14.1287,-14.1456,-14.1612,-14.1819,-14.1985,-14.2329,-14.2384,-14.2571,-14.2538,-14.2787,-14.2565,-14.257,-14.2543,-14.2532,-14.2552,-14.283,-14.2837,-14.2843,-14.2848,0,-13.9932,-13.9966,-14.0294,-14.0421,-14.0459,-14.0676,-14.0781,-14.0958,-14.0991,-14.1239,-14.1296,-14.1346,-14.1559,-14.1575,-14.1819,-14.182,-14.2169,-14.2132,-14.2127,-14.2121,-14.2345,-14.2325,-14.3071,-14.3168,-14.2519,-14.2525,-14.253,0,-13.9458,-13.973,-13.9764,-13.9952,-14.0253,-14.0243,-14.0539,-14.0597,-14.0706,-14.0901,-14.0827,-14.101,-14.1001,-14.1185,-14.1187,-14.1474,-14.1519,-14.1537,-14.1534,-14.1545,-14.1543,-14.1613,-14.1583,-14.1519,-14.1515,-14.1511,-14.1508,0,-13.8948,-13.9284,-13.9591,-13.9672,-13.9833,-13.9976,-14.0048,-14.017,-14.0292,-14.0451,-14.0529,-14.0714,-14.0815,-14.0957,-14.0959,-14.0808,-14.131,-14.1103,-14.1328,-14.1328,-14.1438,-14.1432,-14.2088,-14.1504,-14.1503,-14.1501,-14.15,0,-13.857,-13.8739,-13.9178,-13.931,-13.9398,-13.9597,-13.9782,-13.9957,-14.009,-14.0106,-14.023,-14.0182,-14.0435,-14.0228,-14.0575,-14.038,-14.0482,-14.0522,-14.0538,-14.0562,-14.0331,-14.0701,-14.1324,-14.139,-14.0583,-14.0575,-14.0568,0,-13.7978,-13.843,-13.8426,-13.8841,-13.9052,-13.8958,-13.9178,-13.9299,-13.9338,-13.9518,-13.9558,-13.9763,-13.9613,-13.9678,-13.9848,-13.9897,-14.0151,-13.9862,-14.0116,-14.0126,-14.0087,-14.0661,-14.0751,-14.1186,-14.0471,-14.0481,-14.0488,0,-13.7524,-13.772,-13.7795,-13.7887,-13.8049,-13.8223,-13.8477,-13.8679,-13.88,-13.8942,-13.9153,-13.9438,-13.9337,-13.9446,-13.9425,-13.9601,-13.9978,-13.9467,-13.947,-13.9559,-14.0422,-14.0507,-14.058,-13.9924,-13.9936,-13.9945,-14.0411,0,-13.6947,-13.7177,-13.7379,-13.7585,-13.7723,-13.7983,-13.8005,-13.8145,-13.8114,-13.8149,-13.8457,-13.8557,-13.8758,-13.8844,-13.8813,-13.9211,-13.9147,-13.9035,-13.8835,-13.9211,-13.9365,-13.9428,-13.8605,-13.8599,-13.8594,-13.859,0,0,-13.6373,-13.6702,-13.6688,-13.6937,-13.7052,-13.695,-13.7226,-13.7325,-13.7527,-13.7608,-13.7497,-13.7915,-13.8001,-13.8372,-13.8491,-13.8571,-13.8643,-13.8511,-13.9032,-13.9081,-13.9127,-13.9291,-13.9356,-13.8582,-13.858,-13.8578,-13.8577,0,-13.6167,-13.6265,-13.6541,-13.6644,-13.6797,-13.6822,-13.6888,-13.7019,-13.7054,-13.7357,-13.7265,-13.7451,-13.7785,-13.7888,-13.7984,-13.8467,-13.8385,-13.8526,-13.8782,-13.8982,-13.9038,-13.9087,-13.926,-13.9322,-13.8565,-13.8565,-13.8566,0,-13.5724,-13.5824,-13.596,-13.6219,-13.6317,-13.6534,-13.6332,-13.657,-13.673,-13.66,-13.6902,-13.6959,-13.7097,-13.7446,-13.7603,-13.7505,-13.8149,-13.7948,-13.7979,-13.7997,-13.8191,-13.8258,-13.8318,-13.7533,-13.7529,-13.7526,0,0,-13.5543,-13.5756,-13.586,-13.6176,-13.6245,-13.6286,-13.6402,-13.6383,-13.6514,-13.6566,-13.6638,-13.6765,-13.6958,-13.7085,-13.7267,-13.7647,-13.7674,-13.782,-13.7869,-13.7909,-13.7948,-13.8153,-13.8219,-13.7512,-13.7512,-13.7511,0,0,-13.5455,-13.559,-13.5536,-13.5907,-13.6036,-13.6156,-13.6347,-13.6282,-13.6449,-13.6421,-13.6395,-13.6427,-13.6753,-13.6812,-13.6626,-13.7196,-13.6998,-13.7043,-13.7146,-13.7208,-13.7256,-13.7235,-13.6429,0,0,0,0,0,-13.5256,-13.5573,-13.5523,-13.5589,-13.5914,-13.6184,-13.6225,-13.6214,-13.6075,-13.6227,-13.6276,-13.6181,-13.6706,-13.6542,-13.6604,-13.6811,-13.7334,-13.7366,-13.7396,-13.7618,-13.7683,-13.7737,0,0,0,0,0,0,-13.5282,-13.5362,-13.5515,-13.5649,-13.5721,-13.6173,-13.5935,-13.594,-13.6059,-13.6037,-13.6174,-13.6185,-13.6177,-13.6508,-13.6565,-13.6762,-13.641,-13.7347,-13.7373,-13.7397,-13.764,-13.7693,-13.7738,0,0,0,0,0,-13.5302,-13.5367,-13.5892,-13.5644,-13.5707,-13.5768,-13.5923,-13.5926,-13.6016,-13.6094,-13.6102,-13.5998,-13.6183,-13.623,-13.6542,-13.6737,-13.6371,-13.6392,-13.7364,-13.7385,-13.7404,-13.7666,0,0,0,0,0,0,-13.5317,-13.5369,-13.5904,-13.5923,-13.5524,-13.5743,-13.5777,-13.5913,-13.6065,-13.6077,-13.5914,-13.5895,-13.6191,-13.6226,-13.6262,-13.6729,-13.6338,-13.636,-13.6373,-13.738,-13.7397,-13.7411,0,0,0,0,0,0,-13.5334,-13.5386,-13.5914,-13.5764,-13.5765,-13.5719,-13.575,-13.6011,-13.6068,-13.5876,-13.5865,-13.5904,-13.6134,-13.6225,-13.6253,-13.6662,-13.6314,-13.6334,-13.6349,-13.6358,-13.7394,-13.7407,0,0,0,0,0,0,-13.5356,-13.54,-13.5758,-13.576,-13.576,-13.5968,-13.5949,-13.6281,-13.5945,-13.5871,-13.5914,-13.59,-13.6137,-13.6164,-13.6247,-13.6645,-13.6657,-13.6314,-13.6329,-13.6339,-13.6345,0,0,0,0,0,0,0,-13.5373,-13.5081,-13.5795,-13.5756,-13.5756,-13.6096,-13.6101,-13.6106,-13.5942,-13.593,-13.5917,-13.5906,-13.6196,-13.6219,-13.6242,-13.6631,0,0,-13.6312,-13.6322,0,0,0,0,0,0,0,0,-13.5062,-13.5076,-13.5795,-13.5799,-13.5803,-13.6096,-13.6101,-13.6105,-13.594,-13.593,-13.592,-13.591,-13.6202,-13.622,-13.6239,0,0,0,0,0,0,0,0,0,0,0,0,0,0,0,-13.5796,-13.5799,0,-13.6097,-13.61,-13.6104,-13.5938,-13.593,-13.5922,-13.5914,-13.6207,-13.6222,-13.6238,0,0,0,0,0,0,0,0,0,0,0,0,0,0,0,0,0,0,0,0,0,0,0,0,0,0,0,0,0,0,0,0,0,0,0,0,0,0,0,0,0,0,0,0,0,0,0,0,0,0,0,0,0,0,0,0,0,0,0,0,0,0,0,0,0,0,0,0,0]}]]]